Regional Weather Roundup
Issued by NWS

Home | Current Version | Previous Version | Text Only | Print | Product List | Glossary Off
Versions: 1 2 3 4 5 6 7 8 9 10 11 12 13 14 15 16 17 18 19 20 21 22 23 24 25 26 27 28 29 30 31 32 33 34 35 36 37 38 39 40 41 42 43 44 45 46 47 48 49 50

000
ASUS43 KMKX 200000
RWRWI

WISCONSIN REGIONAL WEATHER ROUNDUP
NATIONAL WEATHER SERVICE MILWAUKEE/SULLIVAN WI
700 PM CDT SAT APR 19 2014

NOTE: "FAIR" INDICATES FEW OR NO CLOUDS BELOW 12,000 FEET WITH NO
SIGNIFICANT WEATHER AND/OR OBSTRUCTIONS TO VISIBILITY.

WIZ001-002-006>008-014>016-023>028-200100-
NORTHWEST WISCONSIN

CITY           SKY/WX    TMP DP  RH WIND       PRES   REMARKS
SUPERIOR ARPT  PTCLDY    34  31  88 NE6       30.03S WCI  29
ASHLAND        CLOUDY    46  42  86 CALM      30.02F
6HR MIN TEMP:  40; 6HR MAX TEMP:  50; 6HR PCP:  0.11;

HAYWARD        CLOUDY    51  41  68 S8        30.02R
6HR MIN TEMP:  44; 6HR MAX TEMP:  51; 6HR PCP:  0.07;

SIREN          CLOUDY    55  40  58 CALM      30.00R
RICE LAKE      CLOUDY    51  44  77 SE13      30.03F
LADYSMITH      RAIN      51  47  86 SE7       30.08F
EAU CLAIRE     NOT AVBL
MENOMONIE      CLOUDY    62  42  47 SE7       30.02F
NEW RICHMOND   LGT RAIN  55  46  71 S10       30.00F
OSCEOLA        CLOUDY    60  45  57 S15       30.01S
$$

WIZ003>005-009-010-017-018-200100-
NORTH CENTRAL WISCONSIN

CITY           SKY/WX    TMP DP  RH WIND       PRES   REMARKS
WOODRUFF       LGT RAIN  46  37  72 S6        30.10F
RHINELANDER    LGT RAIN  49  33  54 SE5       30.14R
6HR MIN TEMP:  45; 6HR MAX TEMP:  53; 6HR PCP: TRACE;

EAGLE RIVER    RAIN      49  31  50 S7        30.12F
LAND O LAKES   LGT RAIN  46  37  71 S7        30.11F
PHILLIPS       LGT RAIN  48  43  81 S5        30.09F
TOMAHAWK       LGT RAIN  49  39  68 CALM      30.12R
MEDFORD        CLOUDY    57  39  52 SE3       30.10R
MERRILL        CLOUDY    57  37  48 CALM      30.11R
$$

WIZ029-030-035-036-043>047-200100-
CENTRAL WISCONSIN

CITY           SKY/WX    TMP DP  RH WIND       PRES   REMARKS
WAUSAU         CLOUDY    60  36  40 S14       30.09S
6HR MIN TEMP:  53; 6HR MAX TEMP:  61;

MOSINEE        MOCLDY    61  37  41 S13G20    30.12F
MARSHFIELD     CLOUDY    62  39  42 S14       30.09S
6HR MIN TEMP:  54; 6HR MAX TEMP:  64;

STEVENS POINT  MOCLDY    60  36  40 S16G22    30.12F
WAUPACA        MOCLDY    63  36  36 SE12      30.16F
WAUTOMA        NOT AVBL
WISC RAPIDS    MOCLDY    63  35  35 S9        30.12F
6HR MIN TEMP:  57; 6HR MAX TEMP:  66;

CAMP DOUGLAS   NOT AVBL
$$

WIZ011>013-019>022-031-037>040-048>050-200100-
NORTHEAST WISCONSIN

CITY           SKY/WX    TMP DP  RH WIND       PRES   REMARKS
ANTIGO         MOCLDY    50  38  62 SE15      30.14S
STURGEON BAY   MOCLDY    43  30  61 S13       30.23F
6HR MIN TEMP:  43; 6HR MAX TEMP:  48;

GREEN BAY      MOCLDY    51  37  58 SE13      30.20F
6HR MIN TEMP:  48; 6HR MAX TEMP:  55;

MANITOWOC      NOT AVBL
APPLETON       MOCLDY    54  34  47 SE14      30.19F
CLINTONVILLE   MOCLDY    55  34  44 S12       30.16F
OSHKOSH        MOCLDY    56  35  45 SE9       30.18F
6HR MIN TEMP:  52; 6HR MAX TEMP:  60;

$$

WIZ032>034-041-042-053>061-200100-
SOUTHWEST WISCONSIN

CITY           SKY/WX    TMP DP  RH WIND       PRES   REMARKS
LA CROSSE      MOCLDY    68  38  33 S12       30.06F
6HR MIN TEMP:  61; 6HR MAX TEMP:  70;

SPARTA         MOCLDY    67  35  29 S13G18    30.10S
VIROQUA        FAIR      65  37  35 S14G21    30.10F
BOSCOBEL       MOCLDY    69  35  28 S8        30.11F
6HR MIN TEMP:  62; 6HR MAX TEMP:  71;

PRAIRIE DU CHI MOCLDY    70  36  28 S6        30.09F
PLATTEVILLE    FAIR      65  36  33 SE12      30.14F
$$

WIZ056-057-062-063-064-067-068-200100-
SOUTH CENTRAL WISCONSIN

CITY           SKY/WX    TMP DP  RH WIND       PRES   REMARKS
BARABOO/DELLS  MOCLDY    64  34  33 S15       30.14S
LONE ROCK      NOT AVBL
WATERTOWN      MOCLDY    60  35  39 SE9       30.17F
MADISON        MOCLDY    65  35  33 S10       30.17S
6HR MIN TEMP:  59; 6HR MAX TEMP:  67;

MIDDLETON      FAIR      66  31  27 S9G23     30.16F
MONROE         MOCLDY    65  34  31 S13       30.16S
JANESVILLE     NOT AVBL
$$

WIZ051-052-058>065-066-070>072-200100-
SOUTHEAST WISCONSIN

CITY           SKY/WX    TMP DP  RH WIND       PRES   REMARKS
MILWAUKEE      MOCLDY    46  34  62 SE7       30.24F
6HR MIN TEMP:  45; 6HR MAX TEMP:  53;

WAUKESHA       PTCLDY    54  36  50 SE8       30.22F
MILWAUKEE/TIMM CLEAR     52  34  50 SE10      30.23F
RACINE         MOCLDY    47  34  60 E5        30.25F
6HR MIN TEMP:  44; 6HR MAX TEMP:  52;

BURLINGTON     MOCLDY    56  39  53 SW9       30.21F
KENOSHA        MOCLDY    50  36  58 E9        30.23F
6HR MIN TEMP:  47; 6HR MAX TEMP:  55;

FOND DU LAC    MOCLDY    56  36  47 SE12      30.19F
6HR MIN TEMP:  52; 6HR MAX TEMP:  59;

SHEBOYGAN      MOCLDY    47  36  65 S7        30.23F
6HR MIN TEMP:  44; 6HR MAX TEMP:  51;

WEST BEND      MOCLDY    50  32  50 SE5       30.22S
JUNEAU         MOCLDY    58  31  35 SE12      30.20S
$$

LSZ147-162-200100-
LAKE SUPERIOR

STATION/POSITION TIME  TEMP    WIND        PRES    WAVE
                       AIR SEA DIR/SP/G            HT/PER
                 (UTC) (F)     (DEG/KT/KT) (MB)    (FT/S)
DEVILS ISLAND    2300   40     110/  6/  7 1017.8S
PORT WING        2340   34      30/  8/ 10 1017.3R
SAXON HARBOR     2300             CALM     1016.6F
$$

LMZ867-665-643>646-200100-
LAKE MICHIGAN

STATION/POSITION TIME  TEMP    WIND        PRES    WAVE
                       AIR SEA DIR/SP/G            HT/PER
                 (UTC) (F)     (DEG/KT/KT) (MB)    (FT/S)
NORTHPORT PIER   2300   36     150/  7/  8 1024.4F
SISTER BAY       2309   45     150/ 10/ 14   N/A
KEWAUNEE LAKESHO 2300   40     180/  9/ 11 1024.9F
SHEBOYGAN LAKESH 2300   39     160/  8/  9 1025.0F
PORT WASHINGTON  2340   40     190/  2/  3 1024.4F
MILWAUKEE LAKESH 2300   39      50/  5/  6   N/A
KENOSHA   LAKESH 2300   42      50/  2/  2   N/A
$$

TC  - TEMPERATURE IN CELSIUS
VSB - VISIBILITY IN STATUTE MILES
WCI - WIND CHILL INDEX
HX  - HEAT INDEX




USA.gov is the U.S. government's official web portal to all federal, state and local government web resources and services.